Home > Weather > Emmendingen > Past weeks

Flag for Germany Past Weather in Emmendingen, Baden-Württemberg, Germany — Yesterday and Last 2 Weeks

Now
73 °F

Sunny.


Feels Like: 76 °F
Forecast: 61 / 79 °F
Wind: 3 mph from Northwest

Location: Lahr - CAN-AFB

Current Time: Jul 26, 2016 at 10:34:07 AM

Latest Report: Jul 26, 2016 at 9:50 AM


Visibility: 10 mi

Pressure: 30.12 "Hg

Humidity: 69%

Dew Point: 63 °F

Location of EmmendingenLocation

Past Weather in Emmendingen — Graph

°F

Emmendingen Temperature Yesterday

Maximum temperature yesterday: 82 °F (at 2:20 PM)
Minimum temperature yesterday: 68 °F (at 7:50 AM)
Average temperature yesterday: 78 °F

High & Low Weather Summary for the Past Weeks

 TemperatureHumidityPressure
High93 °F (Jul 20, 2:50 PM)100% (Jul 21, 7:50 AM)30.36 "Hg (Jul 21, 7:50 AM)
Low54 °F (Jul 13, 4:50 PM)26% (Jul 20, 5:20 PM)29.89 "Hg (Jul 11, 11:50 AM)
Average73 °F61%30.07 "Hg
* Reported Jul 11 9:20 AM — Jul 26 9:20 AM, Emmendingen, Weather by CustomWeather, © 2016

Note: Actual official high and low records may vary slightly from our data, if they occured in-between our weather recording intervals... More about our weather records

Advertising

Emmendingen Weather History for the Previous 24 Hours

Scroll right to see more
 ConditionsComfort  
Time TempWeatherWind HumidityBarometerVisibility
9:20 AM
Tue, Jul 26
72 °FSunny.2 mph69%30.12 "Hg10 mi
8:50 AM72 °FSunny.2 mph69%30.12 "Hg10 mi
8:20 AM70 °FSunny.2 mph73%30.12 "Hg10 mi
7:50 AM66 °FSunny.2 mph78%30.12 "Hg10 mi
7:50 PM
Mon, Jul 25
81 °FSunny.7 mph45%30.09 "Hg10 mi
7:20 PM81 °FSunny.7 mph48%30.09 "Hg10 mi
6:50 PM81 °FSunny.7 mph45%30.09 "Hg10 mi
6:20 PM81 °FPassing clouds.6 mph45%30.07 "HgN/A
5:50 PM82 °FPassing clouds.9 mph42%30.07 "HgN/A
5:20 PM82 °FPassing clouds.6 mph45%30.07 "HgN/A
4:50 PM81 °FPassing clouds.7 mph48%30.07 "HgN/A
4:20 PM82 °FPassing clouds.7 mph45%30.09 "HgN/A
3:50 PM82 °FPassing clouds.8 mph51%30.09 "HgN/A
3:20 PM81 °FPassing clouds.8 mph48%30.09 "HgN/A
2:50 PM81 °FPassing clouds.5 mph51%30.09 "HgN/A
2:20 PM82 °FPassing clouds.7 mph48%30.09 "HgN/A
1:50 PM81 °FPassing clouds.6 mph51%30.09 "HgN/A
1:20 PM81 °FPassing clouds.7 mph54%30.09 "HgN/A
12:50 PM77 °FPassing clouds.6 mph54%30.09 "HgN/A
12:20 PM79 °FSunny.5 mph61%30.09 "Hg10 mi
11:50 AM77 °FSunny.3 mph61%30.12 "Hg10 mi
11:20 AM75 °FPassing clouds.6 mph65%30.12 "HgN/A
10:50 AM77 °FSunny.2 mph65%30.12 "Hg10 mi
10:20 AM73 °FSunny.3 mph74%30.12 "Hg10 mi
Weather by CustomWeather, © 2016

See weather overviewHow to use our weather pages